Location: Blangy-Tronville
(49.8790°N, 2.4226°E)
Time: 20:52:51
(UTC+00:00)

Cosmos 44 Rocket - Pass Details

Date: 18 November 2025
Orbit: 637 x 741 km, 65.1° (Epoch: 10 December)

Event Time Altitude Azimuth Distance (km) Brightness Sun altitude
Rises 16:36:51 0° 181° (S) 2,980 6.9 -5.7°
Reaches altitude 10° 16:39:26 10° 169° (S) 2,089 5.9 -6.1°
Maximum altitude 16:43:18 25° 114° (ESE) 1,355 4.4 -6.7°
Drops below altitude 10° 16:47:17 10° 59° (ENE) 2,158 5.2 -7.3°
Enters shadow 16:47:40 - 57° (ENE) 2,283 5.3 -7.3°
